owner,sensor,date,latitude,longitude,vertical_datum,sea_water_practical_salinity,qcFlag 
DISL,ioos:station:DISL:CATA:1,2012-06-01T00:00:00Z,30.3085,-88.1395,2.103,24.21,1111122 
DISL,ioos:station:DISL:CATA:1,2012-06-01T00:30:00Z,30.3085,-88.1395,2.14,24.74,1111122 
DISL,ioos:station:DISL:CATA:1,2012-06-01T01:00:00Z,30.3085,-88.1395,2.179,24.58,1111122 
DISL,ioos:station:DISL:CATA:1,2012-06-01T01:30:00Z,30.3085,-88.1395,2.123,24.43,1111122 
DISL,ioos:station:DISL:CATA:1,2012-06-01T02:00:00Z,30.3085,-88.1395,2.061,24.54,1111122 
DISL,ioos:station:DISL:CATA:1,2012-06-01T02:30:00Z,30.3085,-88.1395,2.067,22.82,1111122 
DISL,ioos:station:DISL:CATA:1,2012-06-01T03:00:00Z,30.3085,-88.1395,2.093,21.69,1111122 
DISL,ioos:station:DISL:CATA:1,2012-06-01T03:30:00Z,30.3085,-88.1395,2.065,22.19,1111122 
DISL,ioos:station:DISL:CATA:1,2012-06-01T04:00:00Z,30.3085,-88.1395,2.056,21.7,1111122 
DISL,ioos:station:DISL:CATA:1,2012-06-01T04:30:00Z,30.3085,-88.1395,2.058,21.92,1111122 
DISL,ioos:station:DISL:CATA:1,2012-06-01T05:00:00Z,30.3085,-88.1395,2.145,22.11,1111122 
DISL,ioos:station:DISL:CATA:1,2012-06-01T05:30:00Z,30.3085,-88.1395,2.217,22.1,1111122 
DISL,ioos:station:DISL:CATA:1,2012-06-01T06:00:00Z,30.3085,-88.1395,2.235,22.13,1111122 
DISL,ioos:station:DISL:CATA:1,2012-06-01T06:30:00Z,30.3085,-88.1395,2.224,22.08,1111122 
DISL,ioos:station:DISL:CATA:1,2012-06-01T07:00:00Z,30.3085,-88.1395,2.21,22.21,1111122 
DISL,ioos:station:DISL:CATA:1,2012-06-01T07:30:00Z,30.3085,-88.1395,2.231,22.24,1111122 
DISL,ioos:station:DISL:CATA:1,2012-06-01T08:00:00Z,30.3085,-88.1395,2.279,22.31,1111122 
DISL,ioos:station:DISL:CATA:1,2012-06-01T08:30:00Z,30.3085,-88.1395,2.327,23.05,1111122 
DISL,ioos:station:DISL:CATA:1,2012-06-01T09:00:00Z,30.3085,-88.1395,2.393,23.35,1111122 
DISL,ioos:station:DISL:CATA:1,2012-06-01T09:30:00Z,30.3085,-88.1395,2.363,23.98,1111122 
DISL,ioos:station:DISL:CATA:1,2012-06-01T10:00:00Z,30.3085,-88.1395,2.338,24.53,1111122 
DISL,ioos:station:DISL:CATA:1,2012-06-01T10:30:00Z,30.3085,-88.1395,2.378,24.63,1111122 
DISL,ioos:station:DISL:CATA:1,2012-06-01T11:00:00Z,30.3085,-88.1395,2.393,24.66,1111122 
DISL,ioos:station:DISL:CATA:1,2012-06-01T11:30:00Z,30.3085,-88.1395,2.372,24.7,1111122 
DISL,ioos:station:DISL:CATA:1,2012-06-01T12:00:00Z,30.3085,-88.1395,2.35,25.24,1111122 
DISL,ioos:station:DISL:CATA:1,2012-06-01T12:30:00Z,30.3085,-88.1395,2.333,25.26,1111122 
DISL,ioos:station:DISL:CATA:1,2012-06-01T13:00:00Z,30.3085,-88.1395,2.413,24.82,1111122 
DISL,ioos:station:DISL:CATA:1,2012-06-01T13:30:00Z,30.3085,-88.1395,2.453,24.32,1111122 
DISL,ioos:station:DISL:CATA:1,2012-06-01T14:00:00Z,30.3085,-88.1395,2.5,23.56,1111122 
DISL,ioos:station:DISL:CATA:1,2012-06-01T14:30:00Z,30.3085,-88.1395,2.504,22.99,1111122 
DISL,ioos:station:DISL:CATA:1,2012-06-01T15:00:00Z,30.3085,-88.1395,2.48,25.31,1111122 
DISL,ioos:station:DISL:CATA:1,2012-06-01T15:30:00Z,30.3085,-88.1395,2.452,25.51,1111122 
DISL,ioos:station:DISL:CATA:1,2012-06-01T16:00:00Z,30.3085,-88.1395,2.402,25.55,1111122 
DISL,ioos:station:DISL:CATA:1,2012-06-01T16:30:00Z,30.3085,-88.1395,2.407,25.6,1111122 
DISL,ioos:station:DISL:CATA:1,2012-06-01T17:00:00Z,30.3085,-88.1395,2.351,25.57,1111122 
DISL,ioos:station:DISL:CATA:1,2012-06-01T17:30:00Z,30.3085,-88.1395,2.288,25.32,1111122 
DISL,ioos:station:DISL:CATA:1,2012-06-01T18:00:00Z,30.3085,-88.1395,2.256,24.21,1111122 
DISL,ioos:station:DISL:CATA:1,2012-06-01T18:30:00Z,30.3085,-88.1395,2.227,22.78,1111122 
DISL,ioos:station:DISL:CATA:1,2012-06-01T19:00:00Z,30.3085,-88.1395,2.183,22.77,1111122 
DISL,ioos:station:DISL:CATA:1,2012-06-01T19:30:00Z,30.3085,-88.1395,2.141,22.67,1111122 
DISL,ioos:station:DISL:CATA:1,2012-06-01T20:00:00Z,30.3085,-88.1395,2.104,22.54,1111122 
DISL,ioos:station:DISL:CATA:1,2012-06-01T20:30:00Z,30.3085,-88.1395,2.091,22.1,1111122 
DISL,ioos:station:DISL:CATA:1,2012-06-01T21:00:00Z,30.3085,-88.1395,2.062,21.49,1111122 
DISL,ioos:station:DISL:CATA:1,2012-06-01T21:30:00Z,30.3085,-88.1395,2.033,21.33,1111122 
DISL,ioos:station:DISL:CATA:1,2012-06-01T22:00:00Z,30.3085,-88.1395,2.013,21.43,1111122 
DISL,ioos:station:DISL:CATA:1,2012-06-01T22:30:00Z,30.3085,-88.1395,1.995,21.3,1111122 
DISL,ioos:station:DISL:CATA:1,2012-06-01T23:00:00Z,30.3085,-88.1395,1.98,21.42,1111122 
DISL,ioos:station:DISL:CATA:1,2012-06-01T23:30:00Z,30.3085,-88.1395,1.983,21.36,1111122 
DISL,ioos:station:DISL:CATA:1,2012-06-02T00:00:00Z,30.3085,-88.1395,1.936,21.14,1111122 
DISL,ioos:station:DISL:CATA:1,2012-06-02T00:30:00Z,30.3085,-88.1395,1.916,21.44,1111122 
DISL,ioos:station:DISL:CATA:1,2012-06-02T01:00:00Z,30.3085,-88.1395,1.922,21.59,1111122 
DISL,ioos:station:DISL:CATA:1,2012-06-02T01:30:00Z,30.3085,-88.1395,1.927,21.53,1111122 
DISL,ioos:station:DISL:CATA:1,2012-06-02T02:00:00Z,30.3085,-88.1395,1.935,21.21,1111122 
DISL,ioos:station:DISL:CATA:1,2012-06-02T02:30:00Z,30.3085,-88.1395,1.935,20.85,1111122 
DISL,ioos:station:DISL:CATA:1,2012-06-02T03:00:00Z,30.3085,-88.1395,1.951,20.54,1111122 
DISL,ioos:station:DISL:CATA:1,2012-06-02T03:30:00Z,30.3085,-88.1395,1.975,20.26,1111122 
DISL,ioos:station:DISL:CATA:1,2012-06-02T04:00:00Z,30.3085,-88.1395,1.984,20.04,1111122 
DISL,ioos:station:DISL:CATA:1,2012-06-02T04:30:00Z,30.3085,-88.1395,1.995,19.83,1111122 
DISL,ioos:station:DISL:CATA:1,2012-06-02T05:00:00Z,30.3085,-88.1395,2.013,20.52,1111122 
DISL,ioos:station:DISL:CATA:1,2012-06-02T05:30:00Z,30.3085,-88.1395,2.014,20.75,1111122 
DISL,ioos:station:DISL:CATA:1,2012-06-02T06:00:00Z,30.3085,-88.1395,2.018,20.94,1111122 
DISL,ioos:station:DISL:CATA:1,2012-06-02T06:30:00Z,30.3085,-88.1395,2.04,21.1,1111122 
DISL,ioos:station:DISL:CATA:1,2012-06-02T07:00:00Z,30.3085,-88.1395,2.076,20.99,1111122 
DISL,ioos:station:DISL:CATA:1,2012-06-02T07:30:00Z,30.3085,-88.1395,2.096,20.98,1111122 
DISL,ioos:station:DISL:CATA:1,2012-06-02T08:00:00Z,30.3085,-88.1395,2.124,21.05,1111122 
DISL,ioos:station:DISL:CATA:1,2012-06-02T08:30:00Z,30.3085,-88.1395,2.16,21.32,1111122 
DISL,ioos:station:DISL:CATA:1,2012-06-02T09:00:00Z,30.3085,-88.1395,2.193,21.02,1111122 
DISL,ioos:station:DISL:CATA:1,2012-06-02T09:30:00Z,30.3085,-88.1395,2.233,20.96,1111122 
DISL,ioos:station:DISL:CATA:1,2012-06-02T10:00:00Z,30.3085,-88.1395,2.266,20.92,1111122 
DISL,ioos:station:DISL:CATA:1,2012-06-02T10:30:00Z,30.3085,-88.1395,2.323,20.93,1111122 
DISL,ioos:station:DISL:CATA:1,2012-06-02T11:00:00Z,30.3085,-88.1395,2.348,21.43,1111122 
DISL,ioos:station:DISL:CATA:1,2012-06-02T11:30:00Z,30.3085,-88.1395,2.367,22.11,1111122 
DISL,ioos:station:DISL:CATA:1,2012-06-02T12:00:00Z,30.3085,-88.1395,2.411,21.97,1111122 
DISL,ioos:station:DISL:CATA:1,2012-06-02T12:30:00Z,30.3085,-88.1395,2.432,22.09,1111122 
DISL,ioos:station:DISL:CATA:1,2012-06-02T13:00:00Z,30.3085,-88.1395,2.458,22.3,1111122 
DISL,ioos:station:DISL:CATA:1,2012-06-02T13:30:00Z,30.3085,-88.1395,2.464,22.98,1111122 
DISL,ioos:station:DISL:CATA:1,2012-06-02T14:00:00Z,30.3085,-88.1395,2.47,23.57,1111122 
DISL,ioos:station:DISL:CATA:1,2012-06-02T14:30:00Z,30.3085,-88.1395,2.473,24.11,1111122 
DISL,ioos:station:DISL:CATA:1,2012-06-02T15:00:00Z,30.3085,-88.1395,2.469,24.23,1111122 
DISL,ioos:station:DISL:CATA:1,2012-06-02T15:30:00Z,30.3085,-88.1395,2.459,24.3,1111122 
DISL,ioos:station:DISL:CATA:1,2012-06-02T16:00:00Z,30.3085,-88.1395,2.445,24.39,1111122 
DISL,ioos:station:DISL:CATA:1,2012-06-02T16:30:00Z,30.3085,-88.1395,2.43,24.53,1111122 
DISL,ioos:station:DISL:CATA:1,2012-06-02T17:00:00Z,30.3085,-88.1395,2.403,24.65,1111122 
DISL,ioos:station:DISL:CATA:1,2012-06-02T17:30:00Z,30.3085,-88.1395,2.368,24.72,1111122 
DISL,ioos:station:DISL:CATA:1,2012-06-02T18:00:00Z,30.3085,-88.1395,2.33,22.78,1111122 
DISL,ioos:station:DISL:CATA:1,2012-06-02T18:30:00Z,30.3085,-88.1395,2.292,21.01,1111122 
DISL,ioos:station:DISL:CATA:1,2012-06-02T19:00:00Z,30.3085,-88.1395,2.252,20.89,1111122 
DISL,ioos:station:DISL:CATA:1,2012-06-02T19:30:00Z,30.3085,-88.1395,2.207,20.7,1111122 
DISL,ioos:station:DISL:CATA:1,2012-06-02T20:00:00Z,30.3085,-88.1395,2.166,20.32,1111122 
DISL,ioos:station:DISL:CATA:1,2012-06-02T20:30:00Z,30.3085,-88.1395,2.121,20.07,1111122 
DISL,ioos:station:DISL:CATA:1,2012-06-02T21:00:00Z,30.3085,-88.1395,2.074,19.85,1111122 
DISL,ioos:station:DISL:CATA:1,2012-06-02T21:30:00Z,30.3085,-88.1395,2.032,19.76,1111122 
DISL,ioos:station:DISL:CATA:1,2012-06-02T22:00:00Z,30.3085,-88.1395,1.997,19.67,1111122 
DISL,ioos:station:DISL:CATA:1,2012-06-02T22:30:00Z,30.3085,-88.1395,1.969,19.58,1111122 
DISL,ioos:station:DISL:CATA:1,2012-06-02T23:00:00Z,30.3085,-88.1395,1.943,19.52,1111122 
DISL,ioos:station:DISL:CATA:1,2012-06-02T23:30:00Z,30.3085,-88.1395,1.922,19.53,1111122 
DISL,ioos:station:DISL:CATA:1,2012-06-03T00:00:00Z,30.3085,-88.1395,1.897,19.5,1111122 
DISL,ioos:station:DISL:CATA:1,2012-06-03T00:30:00Z,30.3085,-88.1395,1.878,19.56,1111122 
DISL,ioos:station:DISL:CATA:1,2012-06-03T01:00:00Z,30.3085,-88.1395,1.876,19.59,1111122 
DISL,ioos:station:DISL:CATA:1,2012-06-03T01:30:00Z,30.3085,-88.1395,1.887,19.64,1111122 
DISL,ioos:station:DISL:CATA:1,2012-06-03T02:00:00Z,30.3085,-88.1395,1.883,19.67,1111122 
DISL,ioos:station:DISL:CATA:1,2012-06-03T02:30:00Z,30.3085,-88.1395,1.889,19.79,1111122 
DISL,ioos:station:DISL:CATA:1,2012-06-03T03:00:00Z,30.3085,-88.1395,1.9,19.77,1111122 
DISL,ioos:station:DISL:CATA:1,2012-06-03T03:30:00Z,30.3085,-88.1395,1.922,19.71,1111122 
DISL,ioos:station:DISL:CATA:1,2012-06-03T04:00:00Z,30.3085,-88.1395,1.966,19.65,1111122 
DISL,ioos:station:DISL:CATA:1,2012-06-03T04:30:00Z,30.3085,-88.1395,1.983,19.72,1111122 
DISL,ioos:station:DISL:CATA:1,2012-06-03T05:00:00Z,30.3085,-88.1395,2.003,19.72,1111122 
DISL,ioos:station:DISL:CATA:1,2012-06-03T05:30:00Z,30.3085,-88.1395,2.03,19.76,1111122 
DISL,ioos:station:DISL:CATA:1,2012-06-03T06:00:00Z,30.3085,-88.1395,2.057,19.76,1111122 
DISL,ioos:station:DISL:CATA:1,2012-06-03T06:30:00Z,30.3085,-88.1395,2.084,19.75,1111122 
DISL,ioos:station:DISL:CATA:1,2012-06-03T07:00:00Z,30.3085,-88.1395,2.107,19.77,1111122 
DISL,ioos:station:DISL:CATA:1,2012-06-03T07:30:00Z,30.3085,-88.1395,2.129,20.14,1111122 
DISL,ioos:station:DISL:CATA:1,2012-06-03T08:00:00Z,30.3085,-88.1395,2.159,20.54,1111122 
DISL,ioos:station:DISL:CATA:1,2012-06-03T08:30:00Z,30.3085,-88.1395,2.186,20.89,1111122 
DISL,ioos:station:DISL:CATA:1,2012-06-03T09:00:00Z,30.3085,-88.1395,2.214,21.25,1111122 
DISL,ioos:station:DISL:CATA:1,2012-06-03T09:30:00Z,30.3085,-88.1395,2.249,22.29,1111122 
DISL,ioos:station:DISL:CATA:1,2012-06-03T10:00:00Z,30.3085,-88.1395,2.283,22.92,1111122 
DISL,ioos:station:DISL:CATA:1,2012-06-03T10:30:00Z,30.3085,-88.1395,2.32,23.28,1111122 
DISL,ioos:station:DISL:CATA:1,2012-06-03T11:00:00Z,30.3085,-88.1395,2.352,23.13,1111122 
DISL,ioos:station:DISL:CATA:1,2012-06-03T11:30:00Z,30.3085,-88.1395,2.388,23.22,1111122 
DISL,ioos:station:DISL:CATA:1,2012-06-03T12:00:00Z,30.3085,-88.1395,2.416,23.86,1111122 
DISL,ioos:station:DISL:CATA:1,2012-06-03T12:30:00Z,30.3085,-88.1395,2.446,24.01,1111122 
DISL,ioos:station:DISL:CATA:1,2012-06-03T13:00:00Z,30.3085,-88.1395,2.467,23.84,1111122 
DISL,ioos:station:DISL:CATA:1,2012-06-03T13:30:00Z,30.3085,-88.1395,2.49,24.12,1111122 
DISL,ioos:station:DISL:CATA:1,2012-06-03T14:00:00Z,30.3085,-88.1395,2.496,24.3,1111122 
DISL,ioos:station:DISL:CATA:1,2012-06-03T14:30:00Z,30.3085,-88.1395,2.503,24.31,1111122 
DISL,ioos:station:DISL:CATA:1,2012-06-03T15:00:00Z,30.3085,-88.1395,2.498,24.46,1111122 
DISL,ioos:station:DISL:CATA:1,2012-06-03T15:30:00Z,30.3085,-88.1395,2.497,24.7,1111122 
DISL,ioos:station:DISL:CATA:1,2012-06-03T16:00:00Z,30.3085,-88.1395,2.48,24.82,1111122 
DISL,ioos:station:DISL:CATA:1,2012-06-03T16:30:00Z,30.3085,-88.1395,2.459,24.97,1111122 
DISL,ioos:station:DISL:CATA:1,2012-06-03T17:00:00Z,30.3085,-88.1395,2.432,25.03,1111122 
DISL,ioos:station:DISL:CATA:1,2012-06-03T17:30:00Z,30.3085,-88.1395,2.405,25.0,1111122 
DISL,ioos:station:DISL:CATA:1,2012-06-03T18:00:00Z,30.3085,-88.1395,2.371,24.93,1111122 
DISL,ioos:station:DISL:CATA:1,2012-06-03T18:30:00Z,30.3085,-88.1395,2.335,24.97,1111122 
DISL,ioos:station:DISL:CATA:1,2012-06-03T19:00:00Z,30.3085,-88.1395,2.298,24.87,1111122 
DISL,ioos:station:DISL:CATA:1,2012-06-03T19:30:00Z,30.3085,-88.1395,2.237,24.47,1111122 
DISL,ioos:station:DISL:CATA:1,2012-06-03T20:00:00Z,30.3085,-88.1395,2.195,22.96,1111122 
DISL,ioos:station:DISL:CATA:1,2012-06-03T20:30:00Z,30.3085,-88.1395,2.143,22.88,1111122 
DISL,ioos:station:DISL:CATA:1,2012-06-03T21:00:00Z,30.3085,-88.1395,2.098,22.98,1111122 
DISL,ioos:station:DISL:CATA:1,2012-06-03T21:30:00Z,30.3085,-88.1395,2.057,22.94,1111122 
DISL,ioos:station:DISL:CATA:1,2012-06-03T22:00:00Z,30.3085,-88.1395,2.019,23.26,1111122 
DISL,ioos:station:DISL:CATA:1,2012-06-03T22:30:00Z,30.3085,-88.1395,1.978,24.24,1111122 
DISL,ioos:station:DISL:CATA:1,2012-06-03T23:00:00Z,30.3085,-88.1395,1.956,24.95,1111122 
DISL,ioos:station:DISL:CATA:1,2012-06-03T23:30:00Z,30.3085,-88.1395,1.919,25.3,1111122 
DISL,ioos:station:DISL:CATA:1,2012-06-04T00:00:00Z,30.3085,-88.1395,1.896,25.51,1111122 
DISL,ioos:station:DISL:CATA:1,2012-06-04T00:30:00Z,30.3085,-88.1395,1.888,25.48,1111122 
DISL,ioos:station:DISL:CATA:1,2012-06-04T01:00:00Z,30.3085,-88.1395,1.852,25.32,1111122 
DISL,ioos:station:DISL:CATA:1,2012-06-04T01:30:00Z,30.3085,-88.1395,1.856,24.9,1111122 
DISL,ioos:station:DISL:CATA:1,2012-06-04T02:00:00Z,30.3085,-88.1395,1.86,24.32,1111122 
DISL,ioos:station:DISL:CATA:1,2012-06-04T02:30:00Z,30.3085,-88.1395,1.862,23.82,1111122 
DISL,ioos:station:DISL:CATA:1,2012-06-04T03:00:00Z,30.3085,-88.1395,1.864,23.1,1111122 
DISL,ioos:station:DISL:CATA:1,2012-06-04T03:30:00Z,30.3085,-88.1395,1.878,22.42,1111122 
DISL,ioos:station:DISL:CATA:1,2012-06-04T04:00:00Z,30.3085,-88.1395,1.905,22.27,1111122 
DISL,ioos:station:DISL:CATA:1,2012-06-04T04:30:00Z,30.3085,-88.1395,1.916,22.49,1111122 
DISL,ioos:station:DISL:CATA:1,2012-06-04T05:00:00Z,30.3085,-88.1395,1.938,23.23,1111122 
DISL,ioos:station:DISL:CATA:1,2012-06-04T05:30:00Z,30.3085,-88.1395,1.967,23.73,1111122 
DISL,ioos:station:DISL:CATA:1,2012-06-04T06:00:00Z,30.3085,-88.1395,2.004,24.07,1111122 
DISL,ioos:station:DISL:CATA:1,2012-06-04T06:30:00Z,30.3085,-88.1395,2.033,24.56,1111122 
DISL,ioos:station:DISL:CATA:1,2012-06-04T07:00:00Z,30.3085,-88.1395,2.057,24.7,1111122 
DISL,ioos:station:DISL:CATA:1,2012-06-04T07:30:00Z,30.3085,-88.1395,2.094,23.99,1111122 
DISL,ioos:station:DISL:CATA:1,2012-06-04T08:00:00Z,30.3085,-88.1395,2.133,22.89,1111122 
DISL,ioos:station:DISL:CATA:1,2012-06-04T08:30:00Z,30.3085,-88.1395,2.157,22.58,1111122 
DISL,ioos:station:DISL:CATA:1,2012-06-04T09:00:00Z,30.3085,-88.1395,2.183,22.96,1111122 
DISL,ioos:station:DISL:CATA:1,2012-06-04T09:30:00Z,30.3085,-88.1395,2.207,23.62,1111122 
DISL,ioos:station:DISL:CATA:1,2012-06-04T10:00:00Z,30.3085,-88.1395,2.231,23.89,1111122 
DISL,ioos:station:DISL:CATA:1,2012-06-04T10:30:00Z,30.3085,-88.1395,2.259,24.08,1111122 
DISL,ioos:station:DISL:CATA:1,2012-06-04T11:00:00Z,30.3085,-88.1395,2.304,24.38,1111122 
DISL,ioos:station:DISL:CATA:1,2012-06-04T11:30:00Z,30.3085,-88.1395,2.347,24.31,1111122 
DISL,ioos:station:DISL:CATA:1,2012-06-04T12:00:00Z,30.3085,-88.1395,2.387,24.53,1111122 
DISL,ioos:station:DISL:CATA:1,2012-06-04T12:30:00Z,30.3085,-88.1395,2.434,24.5,1111122 
DISL,ioos:station:DISL:CATA:1,2012-06-04T13:00:00Z,30.3085,-88.1395,2.462,24.37,1111122 
DISL,ioos:station:DISL:CATA:1,2012-06-04T13:30:00Z,30.3085,-88.1395,2.486,24.42,1111122 
DISL,ioos:station:DISL:CATA:1,2012-06-04T14:00:00Z,30.3085,-88.1395,2.509,24.49,1111122 
DISL,ioos:station:DISL:CATA:1,2012-06-04T14:30:00Z,30.3085,-88.1395,2.526,24.42,1111122 
DISL,ioos:station:DISL:CATA:1,2012-06-04T15:00:00Z,30.3085,-88.1395,2.53,24.4,1111122 
DISL,ioos:station:DISL:CATA:1,2012-06-04T15:30:00Z,30.3085,-88.1395,2.532,24.47,1111122 
DISL,ioos:station:DISL:CATA:1,2012-06-04T16:00:00Z,30.3085,-88.1395,2.517,24.52,1111122 
DISL,ioos:station:DISL:CATA:1,2012-06-04T16:30:00Z,30.3085,-88.1395,2.503,24.54,1111122 
DISL,ioos:station:DISL:CATA:1,2012-06-04T17:00:00Z,30.3085,-88.1395,2.489,24.49,1111122 
DISL,ioos:station:DISL:CATA:1,2012-06-04T17:30:00Z,30.3085,-88.1395,2.46,24.41,1111122 
DISL,ioos:station:DISL:CATA:1,2012-06-04T18:00:00Z,30.3085,-88.1395,2.447,24.37,1111122 
DISL,ioos:station:DISL:CATA:1,2012-06-04T18:30:00Z,30.3085,-88.1395,2.41,24.33,1111122 
DISL,ioos:station:DISL:CATA:1,2012-06-04T19:00:00Z,30.3085,-88.1395,2.359,24.62,1111122 
DISL,ioos:station:DISL:CATA:1,2012-06-04T19:30:00Z,30.3085,-88.1395,2.335,24.58,1111122 
DISL,ioos:station:DISL:CATA:1,2012-06-04T20:00:00Z,30.3085,-88.1395,2.292,23.85,1111122 
DISL,ioos:station:DISL:CATA:1,2012-06-04T20:30:00Z,30.3085,-88.1395,2.246,23.6,1111122 
DISL,ioos:station:DISL:CATA:1,2012-06-04T21:00:00Z,30.3085,-88.1395,2.203,23.62,1111122 
DISL,ioos:station:DISL:CATA:1,2012-06-04T21:30:00Z,30.3085,-88.1395,2.145,23.77,1111122 
DISL,ioos:station:DISL:CATA:1,2012-06-04T22:00:00Z,30.3085,-88.1395,2.093,23.75,1111122 
DISL,ioos:station:DISL:CATA:1,2012-06-04T22:30:00Z,30.3085,-88.1395,2.05,23.86,1111122 
DISL,ioos:station:DISL:CATA:1,2012-06-04T23:00:00Z,30.3085,-88.1395,2.013,23.92,1111122 
DISL,ioos:station:DISL:CATA:1,2012-06-04T23:30:00Z,30.3085,-88.1395,1.985,24.07,1111122 
DISL,ioos:station:DISL:CATA:1,2012-06-05T00:00:00Z,30.3085,-88.1395,1.944,23.96,1111122 
DISL,ioos:station:DISL:CATA:1,2012-06-05T00:30:00Z,30.3085,-88.1395,1.922,23.73,1111122 
DISL,ioos:station:DISL:CATA:1,2012-06-05T01:00:00Z,30.3085,-88.1395,1.888,23.47,1111122 
DISL,ioos:station:DISL:CATA:1,2012-06-05T01:30:00Z,30.3085,-88.1395,1.863,23.22,1111122 
DISL,ioos:station:DISL:CATA:1,2012-06-05T02:00:00Z,30.3085,-88.1395,1.837,23.19,1111122 
DISL,ioos:station:DISL:CATA:1,2012-06-05T02:30:00Z,30.3085,-88.1395,1.857,23.01,1111122 
DISL,ioos:station:DISL:CATA:1,2012-06-05T03:00:00Z,30.3085,-88.1395,1.858,22.84,1111122 
DISL,ioos:station:DISL:CATA:1,2012-06-05T03:30:00Z,30.3085,-88.1395,1.852,22.8,1111122 
DISL,ioos:station:DISL:CATA:1,2012-06-05T04:00:00Z,30.3085,-88.1395,1.845,22.71,1111122 
DISL,ioos:station:DISL:CATA:1,2012-06-05T04:30:00Z,30.3085,-88.1395,1.866,22.37,1111122 
DISL,ioos:station:DISL:CATA:1,2012-06-05T05:00:00Z,30.3085,-88.1395,1.92,22.11,1111122 
DISL,ioos:station:DISL:CATA:1,2012-06-05T05:30:00Z,30.3085,-88.1395,1.936,22.23,1111122 
DISL,ioos:station:DISL:CATA:1,2012-06-05T06:00:00Z,30.3085,-88.1395,1.977,22.71,1111122 
DISL,ioos:station:DISL:CATA:1,2012-06-05T06:30:00Z,30.3085,-88.1395,1.999,22.7,1111122 
DISL,ioos:station:DISL:CATA:1,2012-06-05T07:00:00Z,30.3085,-88.1395,2.023,23.01,1111122 
DISL,ioos:station:DISL:CATA:1,2012-06-05T07:30:00Z,30.3085,-88.1395,2.053,23.08,1111122 
DISL,ioos:station:DISL:CATA:1,2012-06-05T08:00:00Z,30.3085,-88.1395,2.093,23.92,1111122 
DISL,ioos:station:DISL:CATA:1,2012-06-05T08:30:00Z,30.3085,-88.1395,2.117,23.8,1111122 
DISL,ioos:station:DISL:CATA:1,2012-06-05T09:00:00Z,30.3085,-88.1395,2.149,23.93,1111122 
DISL,ioos:station:DISL:CATA:1,2012-06-05T09:30:00Z,30.3085,-88.1395,2.191,23.57,1111122 
DISL,ioos:station:DISL:CATA:1,2012-06-05T10:00:00Z,30.3085,-88.1395,2.225,23.49,1111122 
DISL,ioos:station:DISL:CATA:1,2012-06-05T10:30:00Z,30.3085,-88.1395,2.245,23.61,1111122 
DISL,ioos:station:DISL:CATA:1,2012-06-05T11:00:00Z,30.3085,-88.1395,2.28,23.57,1111122 
DISL,ioos:station:DISL:CATA:1,2012-06-05T11:30:00Z,30.3085,-88.1395,2.324,23.67,1111122 
DISL,ioos:station:DISL:CATA:1,2012-06-05T12:00:00Z,30.3085,-88.1395,2.368,23.9,1111122 
DISL,ioos:station:DISL:CATA:1,2012-06-05T12:30:00Z,30.3085,-88.1395,2.391,24.36,1111122 
DISL,ioos:station:DISL:CATA:1,2012-06-05T13:00:00Z,30.3085,-88.1395,2.431,24.18,1111122 
DISL,ioos:station:DISL:CATA:1,2012-06-05T13:30:00Z,30.3085,-88.1395,2.472,24.52,1111122 
DISL,ioos:station:DISL:CATA:1,2012-06-05T14:00:00Z,30.3085,-88.1395,2.487,24.74,1111122 
DISL,ioos:station:DISL:CATA:1,2012-06-05T14:30:00Z,30.3085,-88.1395,2.509,25.04,1111122 
DISL,ioos:station:DISL:CATA:1,2012-06-05T15:00:00Z,30.3085,-88.1395,2.55,25.42,1111122 
DISL,ioos:station:DISL:CATA:1,2012-06-05T15:30:00Z,30.3085,-88.1395,2.57,25.57,1111122 
DISL,ioos:station:DISL:CATA:1,2012-06-05T16:00:00Z,30.3085,-88.1395,2.577,25.61,1111122 
DISL,ioos:station:DISL:CATA:1,2012-06-05T16:30:00Z,30.3085,-88.1395,2.579,25.6,1111122 
DISL,ioos:station:DISL:CATA:1,2012-06-05T17:00:00Z,30.3085,-88.1395,2.589,25.2,1111122 
DISL,ioos:station:DISL:CATA:1,2012-06-05T17:30:00Z,30.3085,-88.1395,2.579,25.89,1111122 
DISL,ioos:station:DISL:CATA:1,2012-06-05T18:00:00Z,30.3085,-88.1395,2.577,25.87,1111122 
DISL,ioos:station:DISL:CATA:1,2012-06-05T18:30:00Z,30.3085,-88.1395,2.549,25.85,1111122 
DISL,ioos:station:DISL:CATA:1,2012-06-05T19:00:00Z,30.3085,-88.1395,2.525,25.86,1111122 
DISL,ioos:station:DISL:CATA:1,2012-06-05T19:30:00Z,30.3085,-88.1395,2.49,25.88,1111122 
DISL,ioos:station:DISL:CATA:1,2012-06-05T20:00:00Z,30.3085,-88.1395,2.465,25.81,1111122 
DISL,ioos:station:DISL:CATA:1,2012-06-05T20:30:00Z,30.3085,-88.1395,2.422,25.81,1111122 
DISL,ioos:station:DISL:CATA:1,2012-06-05T21:00:00Z,30.3085,-88.1395,2.37,25.73,1111122 
DISL,ioos:station:DISL:CATA:1,2012-06-05T21:30:00Z,30.3085,-88.1395,2.318,25.62,1111122 
DISL,ioos:station:DISL:CATA:1,2012-06-05T22:00:00Z,30.3085,-88.1395,2.304,25.53,1111122 
DISL,ioos:station:DISL:CATA:1,2012-06-05T22:30:00Z,30.3085,-88.1395,2.21,25.35,1111122 
DISL,ioos:station:DISL:CATA:1,2012-06-05T23:00:00Z,30.3085,-88.1395,2.254,24.95,1111122 
DISL,ioos:station:DISL:CATA:1,2012-06-05T23:30:00Z,30.3085,-88.1395,2.207,24.79,1111122 
DISL,ioos:station:DISL:CATA:1,2012-06-06T00:00:00Z,30.3085,-88.1395,2.222,24.68,1111122 
DISL,ioos:station:DISL:CATA:1,2012-06-06T00:30:00Z,30.3085,-88.1395,2.209,24.66,1111122 
DISL,ioos:station:DISL:CATA:1,2012-06-06T01:00:00Z,30.3085,-88.1395,2.203,24.53,1111122 
DISL,ioos:station:DISL:CATA:1,2012-06-06T01:30:00Z,30.3085,-88.1395,2.174,24.61,1111122 
DISL,ioos:station:DISL:CATA:1,2012-06-06T02:00:00Z,30.3085,-88.1395,2.123,25.16,1111122 
DISL,ioos:station:DISL:CATA:1,2012-06-06T02:30:00Z,30.3085,-88.1395,2.084,25.26,1111122 
DISL,ioos:station:DISL:CATA:1,2012-06-06T03:00:00Z,30.3085,-88.1395,2.025,24.94,1111122 
DISL,ioos:station:DISL:CATA:1,2012-06-06T03:30:00Z,30.3085,-88.1395,2.015,24.81,1111122 
DISL,ioos:station:DISL:CATA:1,2012-06-06T04:00:00Z,30.3085,-88.1395,1.998,24.64,1111122 
DISL,ioos:station:DISL:CATA:1,2012-06-06T04:30:00Z,30.3085,-88.1395,1.975,24.57,1111122 
DISL,ioos:station:DISL:CATA:1,2012-06-06T05:00:00Z,30.3085,-88.1395,1.965,24.49,1111122 
DISL,ioos:station:DISL:CATA:1,2012-06-06T05:30:00Z,30.3085,-88.1395,1.962,24.56,1111122 
DISL,ioos:station:DISL:CATA:1,2012-06-06T06:00:00Z,30.3085,-88.1395,1.964,24.53,1111122 
DISL,ioos:station:DISL:CATA:1,2012-06-06T06:30:00Z,30.3085,-88.1395,1.977,24.37,1111122 
DISL,ioos:station:DISL:CATA:1,2012-06-06T07:00:00Z,30.3085,-88.1395,2.015,24.31,1111122 
DISL,ioos:station:DISL:CATA:1,2012-06-06T07:30:00Z,30.3085,-88.1395,2.048,24.29,1111122 
DISL,ioos:station:DISL:CATA:1,2012-06-06T08:00:00Z,30.3085,-88.1395,2.055,24.39,1111122 
DISL,ioos:station:DISL:CATA:1,2012-06-06T08:30:00Z,30.3085,-88.1395,2.067,24.4,1111122 
DISL,ioos:station:DISL:CATA:1,2012-06-06T09:00:00Z,30.3085,-88.1395,2.065,24.24,1111122 
DISL,ioos:station:DISL:CATA:1,2012-06-06T09:30:00Z,30.3085,-88.1395,2.093,24.2,1111122 
DISL,ioos:station:DISL:CATA:1,2012-06-06T10:00:00Z,30.3085,-88.1395,2.123,24.44,1111122 
DISL,ioos:station:DISL:CATA:1,2012-06-06T10:30:00Z,30.3085,-88.1395,2.163,24.22,1111122 
DISL,ioos:station:DISL:CATA:1,2012-06-06T11:00:00Z,30.3085,-88.1395,2.212,23.35,1111122 
DISL,ioos:station:DISL:CATA:1,2012-06-06T11:30:00Z,30.3085,-88.1395,2.235,22.87,1111122 
DISL,ioos:station:DISL:CATA:1,2012-06-06T12:00:00Z,30.3085,-88.1395,2.272,22.88,1111122 
DISL,ioos:station:DISL:CATA:1,2012-06-06T12:30:00Z,30.3085,-88.1395,2.292,24.82,1111122 
DISL,ioos:station:DISL:CATA:1,2012-06-06T13:00:00Z,30.3085,-88.1395,2.331,25.22,1111122 
DISL,ioos:station:DISL:CATA:1,2012-06-06T13:30:00Z,30.3085,-88.1395,2.369,25.04,1111122 
DISL,ioos:station:DISL:CATA:1,2012-06-06T14:00:00Z,30.3085,-88.1395,2.409,24.85,1111122 